sat.trackr.live / text

‹ back to catalog

ONEWEB-0674

NORAD 55833 · 2023-029AP

PAYLOAD ACTIVE UNKNOWN

§ Identity

Operator
Country
UK
Launch date
2023-03-09
Launch site
AFETR
Launch vehicle
Mass (kg)
RCS (m²)

Purposes: comms

External: N2YO · Heavens-Above · Gunter

§ Orbital elements

Epoch: 2026-09-20T00:32:09.394080Z

Period
109.55 min
Inclination
87.8897°
Eccentricity
0.0002345
Mean motion
13.14501440 rev/d
Perigee alt
1,204.0 km
Apogee alt
1,207.6 km
Semi-major
7,583.9 km
B*
5.6033e-4
RAAN
270.7974°
Arg perigee
89.9726°
Mean anomaly
270.1673°
Rev number
17,187

§ Raw data

ONEWEB-06741 55833U 23029AP  26263.02233095  .00000221  00000+0  56033-3 0  99972 55833  87.8897 270.7974 0002345  89.9726 270.1673 13.14501440171877

JSON: /api/v1/satellites/55833 · /tle

For live sub-satellite position, see the globe view (requires WebGL).

§ Visibility from observer

Set your observer location to see the next 7 days of passes ≥ 10°. The values pass through the URL so the page stays shareable.

No JS? Fill the form by hand. The geolocation button needs JavaScript.